STARLINK-2453, 47845

Orbit data source: Space-Track

STARLINK-2453, 47845 is a payload satellite owned by SpaceX/Seattle (US) in LEO that was launched on Thu, 11 Mar 2021 UTC via an FALCON 9 launch vehicle from the Air Force Eastern Test Range (AFETR). Payload-class satellites include a variety of spacecraft equipped with specific instruments for various scientific and technological missions. These include communications satellites like Starlink; space stations such as the ISS; scientific satellites like the Hubble; Earth observation satellites from companies like Planet Labs, Umbra, and HawkEye 360; GPS; miniature CubeSats for education and research; and military/defense satellites.

Loading next visibility...
Identifier
47845, 2021-018BL
Orbit
LEO
Country
Flag of USUS
Related business
Manufacturer
SpaceX/Seattle
Mission
Operational Commercial Communications
Bus & Motor
STARLINK, Unknown motor
Mass
260 kg wet, ~248 kg dry
Launch date (UTC)
2021-03-11 (5 years ago)
Launch vehicle
FALCON 9
Launch site
Air Force Eastern Test Range (AFETR)
Object type
Payload
Rocket body
Debris
Shape & HBR
Box + 1 Pan, 10.1 m
Radar Cross Section
13.562 m², Large (>1 m²)

Expand to show TLE details & history
Last TLE update: 8 hours ago

TLE from 8 hours ago
0 STARLINK-2453
1 47845U 21018BL  25292.92741526  .00016884  00000-0  11489-2 0  9998
2 47845  53.0537 163.5263 0001433  89.8793 270.2360 15.06424988255384
Epoch: 2025-10-19T22:15Z
TLE epoch observation values (Epoch: 2025-10-19T22:15:28.678Z)
Latitude
-0.00004°
Longitude
161.01972°
Altitude
548.01 km
Speed
7.589 km/s
True Right ascension
10h 54m 06s
True Declination
0° 00' 00"
Sunlit
Object was in daylight at epoch
Visualization orbit readout
Latitude
Unknown
Longitude
Unknown
Altitude
Unknown
Speed
Unknown
Apparent Right ascension
Unknown
Apparent Declination
Unknown
Sunlit
N/A
Visualization observer readout
Local Sidereal Time
01:10:39
Azimuth
Unknown
Elevation
Unknown
Doppler factor
Unknown
Orbital elements
Apogee altitude
548.398 km
Perigee altitude
546.413 km
Semi-major axis
6,925.543 km
Eccentricity
0.00014
Inclination
53.0537°
RAAN
163.5263°
Arg. of periapsis
89.8793°
True anomaly
270.21958°
Mean anomaly
270.236°
Eccentric anomaly
270.22779°
Mean motion
3.76585 °/min
Orbital period
95.6 mins
BSTAR
0.0011489
Loading maneuver chart data...
Computing Atmospheric mass density...
Loading historical data...
Loading historical data...
Loading historical data...
Loading historical data...
Loading historical data...
Loading historical data...
Loading historical data...

Documentation

Showing up to 5 results
|